Regional Weather Roundup
Issued by NWS Cleveland, OH

Home | Current Version | Previous Version | Text Only | Print | Product List | Glossary On
Versions: 1 2 3 4 5 6 7 8 9 10 11 12 13 14 15 16 17 18 19 20 21 22 23 24 25 26 27 28 29 30 31 32 33 34 35 36 37 38 39 40 41 42 43 44 45 46 47 48 49 50
000
ASUS41 KCLE 021810
RWRCLE
OHIO REGIONAL WEATHER ROUNDUP
NATIONAL WEATHER SERVICE WILMINGTON, OH
200 PM EDT THU OCT 02 2014

NOTE: "FAIR" INDICATES FEW OR NO CLOUDS BELOW 12,000 FEET WITH NO
SIGNIFICANT WEATHER AND/OR OBSTRUCTIONS TO VISIBILITY.

OHZ001>008-015>018-024>027-034-035-043-044-021900-
   NORTHWEST OHIO

CITY           SKY/WX    TMP DP  RH WIND       PRES   REMARKS
DEFIANCE       CLOUDY    75  58  55 S8        29.93F
FINDLAY        PTSUNNY   80  57  45 SW14      29.94F
TOLEDO EXPRESS CLOUDY    76  60  57 CALM      29.95S
TOLEDO METCALF MOSUNNY   78  56  46 S9        29.95F
LIMA           CLOUDY    81  59  47 SW9       29.96S
$$

OHZ009>014-019>023-028>033-038-089-021900-
   NORTHEAST OHIO

CITY           SKY/WX    TMP DP  RH WIND       PRES   REMARKS
CLE-HOPKINS    MOSUNNY   74  57  55 S9        30.02F
CLE-LAKEFRONT  MOSUNNY   73  56  54 SE10      30.00F
CUY CO. ARPT   PTSUNNY   75  55  50 SE12      30.03F
LORAIN-ELYRIA  MOSUNNY   78  59  51 S9        30.00F
ASHTABULA      MOSUNNY   69  53  56 S10       30.05F
AKRON-CANTON   MOSUNNY   74  55  51 SE7       30.03F
WOOSTER        SUNNY     77  58  51 S10       30.03F
MANSFIELD      SUNNY     78  59  51 S13       30.01F
YOUNGSTOWN     PTSUNNY   71  55  56 SE6       30.05F
$$

OHZ042-051>053-060>062-070>072-077>081-021900-
  SOUTHWEST OHIO

CITY           SKY/WX    TMP DP  RH WIND       PRES   REMARKS
CINC-COVINGTON MOSUNNY   84  57  39 S15G22    29.97F
CINC-LUNKEN    PTSUNNY   86  58  38 S16G26    29.96F
HAMILTON       PTSUNNY   87  60  40 VRB7      29.96F
DAYTON         PTSUNNY   84  59  42 SW16G22   29.98F
WRIGHT-PAT AFB PTSUNNY   83  60  45 S14       29.97F
DAYTON GENERAL PTSUNNY   77  61  57 S7        29.97F
WILMINGTON     MOSUNNY   83  55  38 SW15G23   29.98F
$$

OHZ036-037-039>041-045>050-054>059-063>069-073>076-082>088-021900-
  CENTRAL AND SOUTHEAST OHIO

CITY           SKY/WX    TMP DP  RH WIND       PRES   REMARKS
COLUMBUS       PTSUNNY   81  54  39 S13       29.98F
OSU AIRPORT    MOSUNNY   79  58  48 S12       29.99F
BOLTON FIELD   SUNNY     82  59  44 S8        29.99F
RICKENBACK AFB MOSUNNY   81  57  44 S12G17    29.98F
NEWARK         SUNNY     81  56  42 S7        30.00F
MARION         SUNNY     82  56  40 S15       29.98F
LANCASTER      MOSUNNY   81  55  40 S9        30.00F
ZANESVILLE     SUNNY     78  58  49 S9        30.02F
NEW PHILLY     SUNNY     76  58  53 S5        30.03F
$$


USA.gov is the U.S. government's official web portal to all federal, state and local government web resources and services.